WESTFORD NEEDLES, 2367

Orbit data source: Space-Track

WESTFORD NEEDLES, 2367 is space debris originally from a launch on Thu, 09 May 1963 UTC launched from the Air Force Western Test Range (AFWTR). Debris objects in space refer to the collection of defunct objects orbiting the Earth. Examples of debris include non-operational satellites, rocket bodies, and fragments generated from explosions, collisions, or faulty payload assembly.

Loading next visibility...
Identifier
2367, 1963-014S
Orbit
Active
Country
Flag of USUS
Related business
Manufacturer
Unknown
Mission
Spacecraft
Bus & Motor
Unknown
Mass
Unknown
Launch date (UTC)
1963-05-09 (63 years ago)
Launch vehicle
Unknown
Launch site
Air Force Western Test Range (AFWTR)
Object type
Payload
Rocket body
Debris
Shape & HBR
Unknown shape, 0.2 m
Radar Cross Section
Medium (>0.1 m² and <1 m²)

Expand to show TLE details & history
Last TLE update: 1 day ago

TLE from 1 day ago
0 WESTFORD NEEDLES
1 02367U 63014S   25345.59156590  .00017303  00000-0  32613-1 0  9991
2 02367  84.4132 108.9275 2822276 341.3712  10.1402  8.96143971995081
Epoch: 2025-12-11T14:11Z
TLE epoch observation values (Epoch: 2025-12-11T14:11:51.293Z)
Latitude
-0.00007°
Longitude
175.41843°
Altitude
734.647 km
Speed
8.45 km/s
True Right ascension
07h 15m 42s
True Declination
0° 00' 00"
Sunlit
Object was in full shadow at epoch
Visualization orbit readout
Latitude
Unknown
Longitude
Unknown
Altitude
Unknown
Speed
Unknown
Apparent Right ascension
Unknown
Apparent Declination
Unknown
Sunlit
N/A
Visualization observer readout
Local Sidereal Time
22:43:16
Azimuth
Unknown
Elevation
Unknown
Doppler factor
Unknown
Orbital elements
Apogee altitude
6,172.688 km
Perigee altitude
647.632 km
Semi-major axis
9,788.297 km
Eccentricity
0.28223
Inclination
84.4132°
RAAN
108.9275°
Arg. of periapsis
341.3712°
True anomaly
18.73432°
Mean anomaly
10.1402°
Eccentric anomaly
14.07186°
Mean motion
2.24121 °/min
Orbital period
160.63 mins
BSTAR
0.032613
Loading maneuver chart data...
Computing Atmospheric mass density...

Documentation

Showing up to 5 results
|